TimeCDT,TemperatureF,Dew PointF,Humidity,Sea Level PressureIn,VisibilityMPH,Wind Direction,Wind SpeedMPH,Gust SpeedMPH,PrecipitationIn,Events,Conditions,WindDirDegrees,DateUTC
12:15 AM,73.4,69.8,88,30.10,10.0,NE,5.8,-,N/A,,Mostly Cloudy,50,2013-08-20 05:15:00
12:35 AM,71.6,69.8,94,30.10,10.0,NE,3.5,-,N/A,,Scattered Clouds,50,2013-08-20 05:35:00
12:55 AM,71.6,69.8,94,30.10,10.0,NE,4.6,-,N/A,,Clear,50,2013-08-20 05:55:00
1:15 AM,71.6,69.8,94,30.09,10.0,NE,3.5,-,N/A,,Partly Cloudy,50,2013-08-20 06:15:00
1:35 AM,71.6,68.0,88,30.08,10.0,Calm,Calm,-,N/A,,Partly Cloudy,0,2013-08-20 06:35:00
1:55 AM,69.8,68.0,94,30.08,10.0,Calm,Calm,-,N/A,,Clear,0,2013-08-20 06:55:00
2:15 AM,69.8,68.0,94,30.08,10.0,Calm,Calm,-,N/A,,Mostly Cloudy,0,2013-08-20 07:15:00
2:35 AM,71.6,69.8,94,30.08,10.0,NE,3.5,-,N/A,,Overcast,50,2013-08-20 07:35:00
2:55 AM,69.8,68.0,94,30.07,10.0,Calm,Calm,-,N/A,,Overcast,0,2013-08-20 07:55:00
3:15 AM,71.6,69.8,94,30.08,10.0,Calm,Calm,-,N/A,,Overcast,0,2013-08-20 08:15:00
3:35 AM,71.6,69.8,94,30.08,10.0,Calm,Calm,-,N/A,,Overcast,0,2013-08-20 08:35:00
3:55 AM,71.6,69.8,94,30.08,10.0,Calm,Calm,-,N/A,,Overcast,0,2013-08-20 08:55:00
4:15 AM,71.6,69.8,94,30.08,10.0,Calm,Calm,-,N/A,,Overcast,0,2013-08-20 09:15:00
4:35 AM,71.6,69.8,94,30.08,10.0,NE,3.5,-,N/A,,Overcast,50,2013-08-20 09:35:00
4:55 AM,71.6,69.8,94,30.08,10.0,Calm,Calm,-,N/A,,Overcast,0,2013-08-20 09:55:00
5:15 AM,73.4,69.8,88,30.08,10.0,NE,3.5,-,N/A,,Overcast,50,2013-08-20 10:15:00
5:35 AM,73.4,69.8,88,30.08,10.0,NE,3.5,-,N/A,,Overcast,50,2013-08-20 10:35:00
5:55 AM,73.4,69.8,88,30.09,10.0,NE,3.5,-,N/A,,Overcast,50,2013-08-20 10:55:00
6:15 AM,73.4,69.8,88,30.10,10.0,ENE,3.5,-,N/A,,Overcast,60,2013-08-20 11:15:00
6:35 AM,73.4,69.8,88,30.10,10.0,Calm,Calm,-,N/A,,Overcast,0,2013-08-20 11:35:00
6:55 AM,73.4,69.8,88,30.10,10.0,Calm,Calm,-,N/A,,Overcast,0,2013-08-20 11:55:00
7:15 AM,73.4,69.8,88,30.11,10.0,Calm,Calm,-,N/A,,Overcast,0,2013-08-20 12:15:00
7:35 AM,73.4,69.8,88,30.11,10.0,Calm,Calm,-,N/A,,Overcast,0,2013-08-20 12:35:00
7:55 AM,73.4,69.8,88,30.12,10.0,NE,3.5,-,N/A,,Overcast,50,2013-08-20 12:55:00
8:15 AM,73.4,71.6,94,30.12,9.0,Calm,Calm,-,N/A,,Overcast,0,2013-08-20 13:15:00
8:35 AM,75.2,71.6,89,30.13,10.0,ENE,3.5,-,N/A,,Overcast,60,2013-08-20 13:35:00
8:55 AM,75.2,71.6,89,30.14,10.0,ENE,4.6,-,N/A,,Overcast,70,2013-08-20 13:55:00
9:15 AM,75.2,71.6,89,30.14,10.0,ENE,4.6,-,N/A,,Overcast,70,2013-08-20 14:15:00
9:35 AM,75.2,71.6,89,30.14,10.0,ENE,5.8,-,N/A,,Overcast,70,2013-08-20 14:35:00
9:55 AM,75.2,71.6,89,30.15,10.0,East,5.8,-,N/A,,Overcast,80,2013-08-20 14:55:00
10:15 AM,77.0,71.6,83,30.15,10.0,ENE,6.9,-,N/A,,Overcast,60,2013-08-20 15:15:00
10:35 AM,78.8,71.6,78,30.16,10.0,ENE,4.6,-,N/A,,Overcast,70,2013-08-20 15:35:00
10:55 AM,78.8,71.6,78,30.16,10.0,East,6.9,-,N/A,,Overcast,80,2013-08-20 15:55:00
11:15 AM,78.8,71.6,78,30.16,10.0,ENE,5.8,-,N/A,,Overcast,60,2013-08-20 16:15:00
11:35 AM,80.6,71.6,74,30.16,10.0,ENE,4.6,-,N/A,,Mostly Cloudy,70,2013-08-20 16:35:00
11:55 AM,80.6,71.6,74,30.16,10.0,East,8.1,-,N/A,,Mostly Cloudy,80,2013-08-20 16:55:00
12:15 PM,80.6,71.6,74,30.15,10.0,NE,6.9,-,N/A,,Mostly Cloudy,50,2013-08-20 17:15:00
12:35 PM,80.6,71.6,74,30.15,10.0,East,5.8,-,N/A,,Mostly Cloudy,80,2013-08-20 17:35:00
12:55 PM,80.6,71.6,74,30.14,10.0,East,5.8,-,N/A,,Partly Cloudy,90,2013-08-20 17:55:00
1:15 PM,78.8,73.4,83,30.13,6.0,ENE,3.5,-,0.02,,Scattered Clouds,60,2013-08-20 18:15:00
1:35 PM,78.8,73.4,83,30.12,9.0,NE,5.8,-,0.04,,Clear,50,2013-08-20 18:35:00
1:55 PM,78.8,73.4,83,30.12,10.0,North,3.5,-,0.04,,Partly Cloudy,10,2013-08-20 18:55:00
2:15 PM,78.8,73.4,83,30.11,10.0,Calm,Calm,-,N/A,,Partly Cloudy,0,2013-08-20 19:15:00
2:35 PM,78.8,75.2,89,30.10,5.0,West,3.5,-,0.02,,Scattered Clouds,260,2013-08-20 19:35:00
2:55 PM,75.2,69.8,83,30.11,10.0,SE,6.9,-,0.02,Thunderstorm,Mostly Cloudy,130,2013-08-20 19:55:00
3:15 PM,75.2,68.0,78,30.10,10.0,Calm,Calm,-,N/A,,Mostly Cloudy,0,2013-08-20 20:15:00
3:35 PM,77.0,69.8,78,30.09,10.0,Calm,Calm,-,N/A,,Clear,0,2013-08-20 20:35:00
3:55 PM,77.0,69.8,78,30.10,10.0,NE,3.5,-,N/A,,Clear,50,2013-08-20 20:55:00
4:15 PM,78.8,71.6,78,30.09,10.0,NE,4.6,-,N/A,,Clear,50,2013-08-20 21:15:00
4:35 PM,80.6,71.6,74,30.10,10.0,ENE,5.8,-,N/A,,Clear,60,2013-08-20 21:35:00
4:55 PM,80.6,71.6,74,30.09,10.0,ENE,5.8,-,N/A,,Clear,70,2013-08-20 21:55:00
5:15 PM,80.6,71.6,74,30.10,8.0,Calm,Calm,-,N/A,,Clear,0,2013-08-20 22:15:00
5:35 PM,80.6,71.6,74,30.09,10.0,Calm,Calm,-,N/A,,Clear,0,2013-08-20 22:35:00
5:55 PM,80.6,71.6,74,30.08,10.0,Calm,Calm,-,N/A,,Clear,0,2013-08-20 22:55:00
6:15 PM,80.6,71.6,74,30.09,10.0,Calm,Calm,-,N/A,,Clear,0,2013-08-20 23:15:00
6:35 PM,80.6,73.4,79,30.09,10.0,Calm,Calm,-,N/A,,Clear,0,2013-08-20 23:35:00
6:55 PM,78.8,73.4,83,30.10,10.0,Calm,Calm,-,N/A,,Clear,0,2013-08-20 23:55:00
7:15 PM,78.8,73.4,83,30.10,10.0,Calm,Calm,-,N/A,,Clear,0,2013-08-21 00:15:00
7:35 PM,75.2,71.6,89,30.10,10.0,Calm,Calm,-,N/A,,Clear,0,2013-08-21 00:35:00
7:55 PM,75.2,73.4,94,30.10,9.0,Calm,Calm,-,N/A,,Clear,0,2013-08-21 00:55:00
8:15 PM,75.2,71.6,89,30.12,9.0,Calm,Calm,-,N/A,,Clear,0,2013-08-21 01:15:00
8:35 PM,73.4,71.6,94,30.12,10.0,Calm,Calm,-,N/A,,Clear,0,2013-08-21 01:35:00
8:55 PM,73.4,71.6,94,30.12,8.0,Calm,Calm,-,N/A,,Clear,0,2013-08-21 01:55:00
9:15 PM,73.4,71.6,94,30.13,10.0,Calm,Calm,-,N/A,,Scattered Clouds,0,2013-08-21 02:15:00
9:35 PM,73.4,71.6,94,30.14,8.0,Calm,Calm,-,N/A,,Partly Cloudy,0,2013-08-21 02:35:00
9:55 PM,73.4,71.6,94,30.14,8.0,Calm,Calm,-,N/A,,Clear,0,2013-08-21 02:55:00
10:15 PM,73.4,71.6,94,30.15,6.0,Calm,Calm,-,N/A,,Clear,0,2013-08-21 03:15:00
10:35 PM,73.4,71.6,94,30.14,2.5,Calm,Calm,-,N/A,,Clear,0,2013-08-21 03:35:00
10:55 PM,73.4,71.6,94,30.14,7.0,Calm,Calm,-,N/A,,Clear,0,2013-08-21 03:55:00
11:35 PM,73.4,71.6,94,30.14,5.0,Calm,Calm,-,N/A,,Clear,0,2013-08-21 04:35:00
11:55 PM,73.4,71.6,94,30.14,7.0,Calm,Calm,-,N/A,,Clear,0,2013-08-21 04:55:00